Terminal Aerodrome Forecast
Issued by NWS

Home | Current Version | Previous Version | Text Only | Print | Product List | Glossary On
Versions: 1 2 3 4 5 6 7 8 9 10 11 12 13
000
FTUS42 TJSJ 292325
TAFJBQ
TAF
TJBQ 292325Z 3000/3024 08011KT P6SM SCT025 SCT050
     FM301400 08015KT P6SM SCT025
     FM302300 09008KT P6SM VCSH SCT025
      AMD NOT SKED 3002/3011=

USA.gov is the U.S. government's official web portal to all federal, state and local government web resources and services.